User: anonymous   Login
Location: Enikep?du
(16.5133°N, 80.7066°E)
Time: 11:57:39
(UTC+00:00)
Language:

RESURS DK-1 - Orbit

View from above orbital plane
View from above orbital plane
View from above satellite
View from above satellite

Ground track
Ground track

The orbit data is extracted from the following two-line orbital elements,

1 29228U 06021A   20099.18041539  .00000045  00000-0  10785-4 0  9997
2 29228  69.9376   6.8948 0006816 232.6679 127.3862 15.02525792762198
Epoch (UTC): 08 April 2020 04:19:47
Eccentricity: 0.0006816
inclination: 69.9376°
perigee height: 554 km
apogee height: 564 km
right ascension of ascending node: 6.8948°
argument of perigee: 232.6679°
revolutions per day: 15.02525792
mean anomaly at epoch: 127.3862°
orbit number at epoch: 76219

The dashed part of the orbit path shows where the satellite is in the earth's shadow,  

DLR